THAICOM 4

Last updated on Jan. 27, 2020, 4:38 a.m. UTC

1 28786U 05028A   20025.96204709 -.00000370  00000-0  00000+0 0  9992
2 28786   0.0176  54.4771 0001954 250.6435 285.4387  1.00272061 52912
UTC
Height (km)
Latitude
Longitude
Inclination
Orbital Period
UTC large
Height (km)
Speed (km/s)
/
Latitude / Longitude
Inclination (degrees)
Orbital Period (minutes)
Azimuth
Elevation
Range (km)
Doppler Factor
iOS Compass Heading
iOS Angle

Next 30 passes for location: Hong Kong

Rise time Rise Azimuth (degrees) Set time Set Azimuth (degrees) Duration Max altitude (degrees)

No matching passes for this satellites